Retour au catalogue

STARLINK-2196

ActifCommunicationsVLEO
NORAD 47773·PAYLOAD·🇺🇸 United States

Lancé Mar 4, 2021 depuis Cape Canaveral Space Force Station

Loading…

Prochains Passages (prochaines 24 heures)

TLE

FraisSource: CelesTrak SupGP

Époque: Sep 15, 2026, 02:25 UTC

1 47773C 21017BD  26258.10118056 -.00005728  00000+0 -13358-3 0  2588
2 47773  53.1607  53.1673 0001385 323.1953 343.1798 15.41660279    17

Suivez STARLINK-2196 en temps réel avec AllMySat

Download on the App Store